[[{"header":{"parameterUnit":"m.s-1","parameterCategory":1,"la1":30.2991,"la2":30.254,"lo1":-89.0895,"lo2":-89.0444,"dy":0.0017,"dx":0.0017,"nx":28,"ny":28,"refTime":"2025-09-08T09:00:00:Z","depth":0,"parameterNumber":2,"parameterNumberName":"U-component_of_WINDS"},"data":[0,0,0,0,0,0,0,0,0,0,0,0,0,0,0,0,0,0,0,0,0,0,0,0,0,0,0,0,0,0,0,0,0,0,0,0,0,0,0,0,0,0,0,0,0,0,0,0,0,0,0,0,0,0,0,0,0,0,-5.2061,-5.2062,0,-5.2141,-5.2142,-5.2143,-5.206,-5.2056,-5.2053,-5.205,-5.2134,-5.214,-5.2145,0,0,0,0,0,0,0,0,0,0,0,0,0,-5.1838,-5.1843,-5.2061,-5.2062,-5.2063,-5.2141,-5.2142,-5.2144,-5.206,-5.2056,-5.2052,-5.2049,-5.2133,-5.2139,-5.2145,0,0,0,0,0,0,0,0,0,0,0,0,0,-5.1929,-5.1844,-5.2061,-5.2031,-5.2029,-5.2141,-5.2142,-5.2144,-5.2061,-5.2056,-5.2051,-5.2047,-5.2131,-5.2138,-5.2146,-5.2292,0,0,-5.217,-5.2174,0,0,0,0,0,0,0,0,-5.1924,-5.1937,-5.2034,-5.2033,-5.2031,-5.2085,-5.2095,-5.2194,-5.2062,-5.2049,-5.205,-5.2044,-5.2122,-5.213,-5.2156,-5.2296,-5.23,-5.2171,-5.2176,-5.2179,-5.2181,0,0,0,0,0,0,0,-5.1917,-5.1933,-5.2093,-5.2036,-5.2034,-5.2014,-5.2022,-5.2113,-5.2112,-5.205,-5.2044,-5.2054,-5.212,-5.2149,-5.2158,-5.2301,-5.2171,-5.2178,-5.2183,-5.2186,-5.2568,-5.2574,0,0,0,0,0,0,-5.1914,-5.1928,-5.209,-5.2095,-5.1964,-5.2022,-5.2031,-5.2073,-5.2111,-5.2112,-5.2058,-5.205,-5.2138,-5.2149,-5.216,-5.2336,-5.2179,-5.2186,-5.2191,-5.2563,-5.257,-5.2576,0,0,0,0,0,0,-5.191,-5.1929,-5.2087,-5.201,-5.2029,-5.2031,-5.208,-5.2077,-5.2105,-5.2117,-5.2117,-5.2088,-5.2134,-5.2149,-5.2261,-5.2338,-5.219,-5.2197,-5.2557,-5.2565,-5.2573,-5.2688,0,0,0,0,0,0,-5.1904,-5.1928,-5.1983,-5.2012,-5.2033,-5.2185,-5.2084,-5.2082,-5.2119,-5.2109,-5.2145,-5.2146,-5.2132,-5.2249,-5.2269,-5.2346,-5.2203,-5.255,-5.256,-5.257,-5.2677,-5.2699,-5.2718,0,0,0,0,0,-5.1896,-5.2012,-5.1986,-5.2006,-5.2102,-5.219,-5.2202,-5.2183,-5.2126,-5.2182,-5.219,-5.2145,-5.2326,-5.2262,-5.2282,-5.2364,-5.2545,-5.2557,-5.2569,-5.2668,-5.2695,-5.2717,0,0,0,0,0,0,-5.1992,-5.2015,-5.1987,-5.2115,-5.2152,-5.2176,-5.2245,-5.2211,-5.2265,-5.2253,-5.2228,-5.2236,-5.2355,-5.237,-5.2298,-5.2509,-5.2426,-5.2443,-5.2495,-5.252,-5.254,-5.2534,-5.221,0,0,0,0,0,-5.2028,-5.2097,-5.2114,-5.2226,-5.2245,-5.2243,-5.228,-5.2263,-5.2299,-5.2314,-5.233,-5.2368,-5.2433,-5.2477,-5.2538,-5.2679,-5.2687,-5.2745,-5.2765,-5.2782,-5.2797,-5.2876,-5.2903,-5.2616,-5.2615,-5.2615,0,0,-5.2103,-5.2125,-5.217,-5.2246,-5.2272,-5.2345,-5.2256,-5.2337,-5.2392,-5.2326,-5.2433,-5.2447,-5.2487,-5.2615,-5.2672,-5.2631,-5.2878,-5.2797,-5.2811,-5.2817,-5.2891,-5.2918,-5.2942,-5.2624,-5.2622,-5.2621,0,0,-5.2279,-5.2301,-5.2398,-5.2426,-5.2466,-5.2464,-5.2487,-5.2517,-5.2524,-5.263,-5.2584,-5.2649,-5.2762,-5.2794,-5.2825,-5.3015,-5.2977,-5.3035,-5.3141,-5.3218,-5.3241,-5.3261,-5.3331,-5.3356,-5.305,-5.3051,-5.3051,0,-5.2367,-5.2475,-5.2452,-5.2537,-5.2573,-5.2518,-5.2617,-5.2645,-5.2704,-5.273,-5.2684,-5.2826,-5.2849,-5.2985,-5.3032,-5.3058,-5.3085,-5.3031,-5.3239,-5.3259,-5.3277,-5.3344,-5.337,-5.3058,-5.3057,-5.3056,-5.3055,0,-5.2584,-5.266,-5.2733,-5.2792,-5.2836,-5.2927,-5.292,-5.2967,-5.2946,-5.295,-5.306,-5.3087,-5.3153,-5.3184,-5.3164,-5.3318,-5.3291,-5.3242,-5.3159,-5.3312,-5.3374,-5.3399,-5.3068,-5.3065,-5.3063,-5.3061,0,0,-5.2821,-5.2867,-5.2894,-5.2921,-5.2963,-5.3021,-5.3112,-5.3176,-5.3219,-5.3262,-5.3338,-5.3436,-5.3392,-5.3427,-5.3411,-5.3478,-5.363,-5.3421,-5.3421,-5.3461,-5.3804,-5.3842,-5.3872,-5.3604,-5.3609,-5.3613,-5.3801,0,-5.2999,-5.3155,-5.3138,-5.3287,-5.3358,-5.3308,-5.3387,-5.3422,-5.3428,-5.349,-5.3496,-5.3567,-5.3502,-5.3524,-5.3588,-5.3598,-5.3699,-5.3584,-5.3677,-5.3681,-5.367,-5.3904,-5.3943,-5.412,-5.3825,-5.3829,-5.3832,0,-5.3227,-5.3279,-5.3436,-5.3468,-5.3497,-5.3569,-5.3628,-5.3687,-5.3727,-5.3727,-5.3768,-5.374,-5.3832,-5.3747,-5.3876,-5.3798,-5.3835,-5.3846,-5.3853,-5.3862,-5.3767,-5.3921,-5.4175,-5.4203,-5.387,-5.3867,-5.3864,0,-5.3387,-5.3496,-5.3604,-5.3628,-5.3669,-5.3721,-5.374,-5.3774,-5.3815,-5.3868,-5.3894,-5.3957,-5.3992,-5.4042,-5.4032,-5.3971,-5.4165,-5.4078,-5.4169,-5.417,-5.4213,-5.421,-5.4479,-5.4234,-5.4234,-5.4234,-5.4233,0,-5.3589,-5.3687,-5.3677,-5.3744,-5.3853,-5.3833,-5.3943,-5.3956,-5.3987,-5.4057,-5.4017,-5.4084,-5.4066,-5.4133,-5.4127,-5.4236,-5.4251,-5.4255,-5.4252,-5.426,-5.426,-5.4285,-5.4273,-5.4241,-5.4239,-5.4238,-5.4236,0,-5.3786,-5.3783,-5.3898,-5.3928,-5.3937,-5.4017,-5.4043,-5.4107,-5.411,-5.4199,-5.4219,-5.4224,-5.4301,-5.4296,-5.4383,-5.4378,-5.4514,-5.4496,-5.4501,-5.4497,-5.4589,-5.4582,-5.4884,-5.4924,-5.4653,-5.4655,-5.4657,0,-5.3916,-5.399,-5.4028,-5.4072,-5.4095,-5.4166,-5.4208,-5.4191,-5.4237,-5.4289,-5.4348,-5.442,-5.4478,-5.4603,-5.4615,-5.4682,-5.4667,-5.4768,-5.4676,-5.4682,-5.4671,-5.4667,-5.4676,-5.4787,-5.479,-5.4792,-5.4794,0,-5.4147,-5.4142,-5.4203,-5.4266,-5.4317,-5.4365,-5.4409,-5.4448,-5.4436,-5.449,-5.4568,-5.4613,-5.4702,-5.4775,-5.484,-5.4861,-5.4827,-5.4823,-5.4848,-5.4857,-5.4857,-5.4861,-5.4552,-5.4816,-5.4814,-5.4813,-5.4811,-5.481,-5.4315,-5.438,-5.4418,-5.4489,-5.452,-5.4563,-5.4625,-5.4637,-5.4701,-5.4772,-5.4758,-5.4847,-5.4887,-5.4969,-5.4997,-5.5067,-5.503,-5.5066,-5.5075,-5.5085,-5.5097,-5.4845,-5.5078,-5.5077,-5.5077,-5.5076,-5.5076,0,-5.4546,-5.4568,-5.4633,-5.4696,-5.4753,-5.4715,-5.4763,-5.4813,-5.4891,-5.493,-5.4988,-5.5079,-5.5151,-5.517,-5.524,-5.5292,-5.5279,-5.5311,-5.5308,-5.5314,-5.5124,-5.5096,-5.5321,-5.5321,-5.5321,-5.5321,-5.5321,-5.5321,-5.4672,-5.4781,-5.4781,-5.4906,-5.4928,-5.5013,-5.5044,-5.5084,-5.5116,-5.5219,-5.5279,-5.529,-5.5323,-5.5395,-5.546,-5.5464,-5.5492,-5.5532,-5.553,-5.5352,-5.5327,-5.5304,-5.5278,-5.5538,-5.5538,-5.5715,-5.5716,-5.5718]},{"header":{"parameterUnit":"m.s-1","parameterCategory":1,"la1":30.2991,"la2":30.254,"lo1":-89.0895,"lo2":-89.0444,"dy":0.0017,"dx":0.0017,"nx":28,"ny":28,"refTime":"2025-09-08T09:00:00:Z","depth":0,"parameterNumber":3,"parameterNumberName":"V-component_of_WINDS"},"data":[0,0,0,0,0,0,0,0,0,0,0,0,0,0,0,0,0,0,0,0,0,0,0,0,0,0,0,0,0,0,0,0,0,0,0,0,0,0,0,0,0,0,0,0,0,0,0,0,0,0,0,0,0,0,0,0,0,0,0.0738,0.0739,0,0.0835,0.0836,0.0837,0.0893,0.0893,0.0893,0.0894,0.0994,0.0996,0.0998,0,0,0,0,0,0,0,0,0,0,0,0,0,0.0603,0.0605,0.0737,0.0739,0.074,0.0834,0.0836,0.0837,0.0893,0.0893,0.0893,0.0894,0.0993,0.0996,0.0999,0,0,0,0,0,0,0,0,0,0,0,0,0,0.0677,0.0606,0.0737,0.0779,0.0784,0.0834,0.0836,0.0837,0.0893,0.0893,0.0893,0.0894,0.0992,0.0995,0.0999,0.1015,0,0,0.101,0.1012,0,0,0,0,0,0,0,0,0.0673,0.0682,0.0772,0.0776,0.0782,0.0852,0.0825,0.0897,0.0893,0.0851,0.0894,0.0894,0.0946,0.0954,0.0971,0.102,0.1024,0.1011,0.1013,0.1014,0.1015,0,0,0,0,0,0,0,0.0667,0.0678,0.0776,0.0773,0.0779,0.0794,0.0805,0.0839,0.0896,0.0855,0.0859,0.087,0.0949,0.0967,0.0974,0.1026,0.101,0.1014,0.1016,0.1017,0.1095,0.1095,0,0,0,0,0,0,0.0655,0.0673,0.0773,0.0779,0.0727,0.0796,0.0808,0.0829,0.0896,0.0906,0.087,0.0872,0.0961,0.097,0.0978,0.1003,0.1014,0.1018,0.102,0.1096,0.1095,0.1095,0,0,0,0,0,0,0.0652,0.0664,0.0769,0.0727,0.0742,0.0798,0.0821,0.0831,0.0849,0.0907,0.0917,0.0878,0.0962,0.0972,0.1006,0.1007,0.102,0.1023,0.1096,0.1095,0.1095,0.1051,0,0,0,0,0,0,0.0648,0.0662,0.0668,0.0727,0.0744,0.0795,0.0821,0.0833,0.0856,0.086,0.0917,0.0927,0.0963,0.1,0.101,0.1012,0.1026,0.1096,0.1096,0.1095,0.1053,0.105,0.1047,0,0,0,0,0,0.0643,0.0652,0.0668,0.068,0.0752,0.0795,0.0804,0.0845,0.0855,0.0862,0.09,0.0925,0.1005,0.1003,0.1014,0.1018,0.1096,0.1096,0.1095,0.1054,0.105,0.1047,0,0,0,0,0,0,0.0591,0.066,0.0679,0.0707,0.0745,0.0804,0.0814,0.0839,0.0875,0.0877,0.0927,0.0939,0.0968,0.0997,0.0993,0.1038,0.1054,0.1055,0.1019,0.1015,0.1012,0.1005,0.1029,0,0,0,0,0,0.0583,0.0611,0.067,0.0689,0.0707,0.0757,0.0777,0.0805,0.0846,0.0862,0.0902,0.0941,0.0976,0.0997,0.1032,0.1058,0.1072,0.1066,0.1063,0.106,0.1061,0.1079,0.1077,0.1094,0.1094,0.1094,0,0,0.0566,0.0608,0.0622,0.068,0.0712,0.0741,0.077,0.0799,0.0821,0.0867,0.0901,0.0932,0.0979,0.1009,0.1025,0.1034,0.1059,0.1059,0.1057,0.1059,0.1078,0.1076,0.1075,0.1094,0.1094,0.1094,0,0,0.0551,0.0584,0.0604,0.0637,0.0686,0.072,0.0724,0.0781,0.0803,0.0838,0.0874,0.0901,0.0959,0.0992,0.1016,0.1015,0.104,0.1025,0.1009,0.1025,0.1024,0.1023,0.1024,0.1023,0.1026,0.1026,0.1026,0,0.0524,0.0568,0.0612,0.0639,0.0664,0.0707,0.0729,0.0758,0.0816,0.0833,0.0842,0.0917,0.0951,0.0991,0.0991,0.1008,0.1017,0.1018,0.1021,0.102,0.102,0.1021,0.1021,0.1024,0.1024,0.1024,0.1024,0,0.0533,0.0564,0.0574,0.0629,0.0655,0.0679,0.0728,0.0749,0.0776,0.0809,0.0845,0.0889,0.0934,0.0945,0.0971,0.0989,0.0994,0.1011,0.1027,0.1015,0.1018,0.1018,0.102,0.1021,0.1022,0.1022,0,0,0.0486,0.0567,0.057,0.0596,0.0654,0.0679,0.0706,0.075,0.0768,0.0807,0.0832,0.0881,0.0898,0.0926,0.0956,0.097,0.0969,0.0987,0.0989,0.0983,0.0993,0.0979,0.0979,0.0986,0.0986,0.0987,0.0989,0,0.048,0.053,0.0571,0.0606,0.0635,0.0678,0.0702,0.0741,0.0773,0.0804,0.084,0.0874,0.0893,0.091,0.0927,0.0965,0.0971,0.0966,0.101,0.1011,0.0997,0.098,0.0966,0.0966,0.099,0.099,0.099,0,0.0478,0.0516,0.0554,0.0611,0.0625,0.0645,0.069,0.0719,0.0764,0.0787,0.0819,0.0851,0.0882,0.0896,0.0941,0.0937,0.0958,0.098,0.0981,0.0986,0.1,0.0986,0.0967,0.0967,0.0992,0.0992,0.0992,0,0.0441,0.0501,0.0533,0.0554,0.0621,0.0635,0.0663,0.071,0.0734,0.0774,0.0791,0.0833,0.0856,0.0889,0.0932,0.0938,0.0974,0.0991,0.0994,0.0993,0.1,0.0999,0.0984,0.1012,0.1012,0.1012,0.1012,0,0.0429,0.0451,0.0517,0.0536,0.0563,0.061,0.0635,0.0668,0.0709,0.0736,0.0776,0.0801,0.0856,0.0888,0.0922,0.0955,0.0965,0.0985,0.0994,0.0982,0.0979,0.0996,0.0998,0.1012,0.1012,0.1012,0.1012,0,0.0392,0.0437,0.0474,0.0535,0.0551,0.0568,0.0621,0.0642,0.0677,0.0711,0.0721,0.0777,0.0817,0.0863,0.0918,0.0941,0.0972,0.0984,0.0956,0.0961,0.0963,0.0962,0.0958,0.0961,0.0987,0.0986,0.0986,0,0.0381,0.0399,0.0463,0.0484,0.0512,0.0545,0.057,0.0619,0.0644,0.0699,0.0714,0.0756,0.0793,0.0855,0.0901,0.0943,0.0958,0.0954,0.0964,0.0952,0.0959,0.0957,0.096,0.0951,0.095,0.095,0.0949,0,0.0358,0.038,0.0415,0.0459,0.0489,0.0525,0.0564,0.0579,0.0635,0.0662,0.0703,0.0732,0.0789,0.0831,0.088,0.0911,0.094,0.0946,0.0949,0.0937,0.092,0.093,0.0948,0.0945,0.0946,0.0946,0.0946,0.0946,0.0335,0.0354,0.0402,0.044,0.0474,0.051,0.0533,0.0572,0.0607,0.0657,0.0683,0.0724,0.0772,0.0841,0.0871,0.0905,0.0914,0.0919,0.092,0.092,0.0917,0.0914,0.0914,0.0914,0.0914,0.0914,0.0914,0,0.0315,0.0348,0.0383,0.0436,0.0467,0.0492,0.0536,0.056,0.0596,0.0638,0.0674,0.0722,0.0764,0.0814,0.086,0.0877,0.0892,0.0887,0.0887,0.0894,0.0906,0.0898,0.0875,0.0875,0.0875,0.0875,0.0875,0.0875,0.0308,0.0341,0.0369,0.0421,0.0454,0.0495,0.0518,0.0552,0.0586,0.0638,0.0673,0.0705,0.0751,0.0801,0.0841,0.0855,0.087,0.0862,0.0879,0.0889,0.0893,0.0896,0.089,0.0865,0.0865,0.0865,0.0865,0.0865]}]]